Weather History for KCNK - October, 2011

Change the Weather History Date:

Sunday, October 23, 2011

  Actual Average Record
Temperature  
Mean Temperature 60 °F 53 °F  
Max Temperature 81 °F 64 °F 88 °F (1939)
Min Temperature 41 °F 41 °F 21 °F (1917)
Degree Days  
Heating Degree Days 4 12  
Month to date heating degree days 205  
Since 1 July heating degree days 278  
Cooling Degree Days 0 0  
Month to date cooling degree days 20  
Year to date cooling degree days 1346  
Growing Degree Days 10 (Base 50)    
Moisture  
Dew Point 39 °F    
Average Humidity 52    
Maximum Humidity 89    
Minimum Humidity 21    
Precipitation  
Precipitation 0.00 in 0.05 in 0.60 in (1947)
Month to date precipitation 1.51  
Year to date precipitation 25.52  
Snow  
Snow 0.00 in 0.00 in T in (1967)
Month to date snowfall 0.1  
Year to date snowfall 13.8  
Since 1 July snowfall 0.1  
Snow Depth -    
Sea Level Pressure  
Sea Level Pressure 29.99 in    
Wind  
Wind Speed 5 mph (West)    
Max Wind Speed 17 mph    
Max Gust Speed 23 mph    
Visibility 10 miles    
Events      
T = Trace of Precipitation, MM = Missing Value Source: NWS Daily Summary

Daily Weather History Graph

Daily Weather History Graph

Search for Another Location

Airport or City:

Trip Planner

Search our weather history database for the weather conditions in past years. The results will help you decide how hot, cold, wet, or windy it might be!

Date:

Astronomy

Oct. 23, 2011 Rise Set
Actual Time 7:48 AM CDT 6:40 PM CDT
Civil Twilight 7:21 AM CDT 7:07 PM CDT
Nautical Twilight 6:49 AM CDT 7:39 PM CDT
Astronomical Twilight 6:18 AM CDT 8:10 PM CDT
Moon 3:58 AM CDT (10/23) 4:31 PM CDT (10/23)
Length of Visible Light 11h 46m
Length of Day
10h 51m
Waning Crescent, 14% of the Moon is Illuminated
Oct 23
Waning Crescent
Oct 26
New
Nov 2
First Quarter
Nov 10
Full
Nov 18
Last Quarter

Hourly Weather History & Observations

Time (CDT) Temp. Windchill Dew Point Humidity Pressure Visibility Wind Dir Wind Speed Gust Speed Precip Events Conditions
12:55 AM 48.0 °F - 39.0 °F 71% 30.00 in 10.0 mi Calm Calm - N/A   Clear
1:55 AM 48.9 °F - 39.0 °F 69% 30.00 in 10.0 mi Calm Calm - N/A   Clear
2:55 AM 46.0 °F - 37.9 °F 73% 29.99 in 10.0 mi Calm Calm - N/A   Clear
3:55 AM 44.1 °F - 37.9 °F 79% 29.99 in 10.0 mi Calm Calm - N/A   Clear
4:55 AM 42.1 °F 40.2 °F 37.9 °F 85% 29.99 in 10.0 mi West 3.5 mph - N/A   Clear
5:55 AM 41.0 °F 37.1 °F 37.9 °F 89% 30.00 in 10.0 mi West 5.8 mph - N/A   Clear
6:55 AM 45.0 °F 42.6 °F 39.9 °F 82% 29.99 in 10.0 mi SW 4.6 mph - N/A   Clear
7:55 AM 45.0 °F 41.8 °F 41.0 °F 86% 30.00 in 10.0 mi WSW 5.8 mph - N/A   Clear
8:55 AM 48.9 °F - 43.0 °F 80% 30.01 in 10.0 mi West 6.9 mph - N/A   Clear
9:55 AM 55.0 °F - 44.1 °F 67% 30.01 in 10.0 mi West 6.9 mph - N/A   Clear
10:55 AM 63.0 °F - 45.0 °F 52% 30.00 in 10.0 mi WSW 8.1 mph - N/A   Clear
11:55 AM 71.1 °F - 42.1 °F 35% 29.99 in 10.0 mi SW 12.7 mph - N/A   Clear
12:55 PM 73.0 °F - 41.0 °F 31% 29.98 in 10.0 mi WSW 15.0 mph 20.7 mph N/A   Clear
1:55 PM 75.9 °F - 41.0 °F 29% 29.94 in 10.0 mi WSW 12.7 mph 20.7 mph N/A   Clear
2:55 PM 78.1 °F - 39.9 °F 25% 29.91 in 10.0 mi West 17.3 mph - N/A   Clear
3:55 PM 80.1 °F - 39.0 °F 23% 29.90 in 10.0 mi WSW 15.0 mph 23.0 mph N/A   Clear
4:55 PM 79.0 °F - 36.0 °F 21% 29.91 in 10.0 mi WNW 15.0 mph 23.0 mph N/A   Clear
5:55 PM 75.9 °F - 36.0 °F 23% 29.94 in 10.0 mi NW 12.7 mph - N/A   Clear
6:55 PM 69.1 °F - 36.0 °F 30% 29.96 in 10.0 mi NNW 9.2 mph - N/A   Clear
7:55 PM 64.9 °F - 36.0 °F 34% 29.99 in 10.0 mi NW 5.8 mph - N/A   Clear
8:55 PM 60.8 °F - 35.6 °F 39% 30.02 in 10.0 mi NNW 5.8 mph - N/A   Clear
9:55 PM 62.1 °F - 36.0 °F 38% 30.04 in 10.0 mi NNW 4.6 mph - N/A   Clear
10:55 PM 60.1 °F - 35.1 °F 39% 30.03 in 10.0 mi Calm Calm - N/A   Clear
11:55 PM 57.2 °F - 33.8 °F 41% 30.05 in 10.0 mi Calm Calm - N/A   Clear